FW5238 Weather Reports


time (UTC)temp
C
wind
direction
speed
KPH
gust
KPH
rain 1hr
cm
rain 24hr
cm
rain mn
cm
humidity
%
barometer
mb
20260507021014 13 144 1.6 8.0 0.00 0.18 0.18 90 1006.6
20260507020514 13 142 0.0 8.0 0.00 0.18 0.18 90 1006.7
20260507020031 13 0 1.6 8.0 0.00 0.18 0.18 90 1006.6
20260507015512 13 133 0.0 9.7 0.00 0.18 0.18 90 1006.7
20260507015014 13 154 0.0 9.7 0.00 0.18 0.18 90 1006.7
20260507014544 13 139 1.6 9.7 0.00 0.18 0.18 90 1006.7
20260507014014 13 161 1.6 6.4 0.00 0.18 0.18 90 1006.9
20260507013513 13 151 0.0 9.7 0.00 0.18 0.18 90 1006.9
20260507013030 13 140 3.2 9.7 0.00 0.18 0.18 90 1006.9
20260507012513 13 0 0.0 4.8 0.00 0.18 0.18 90 1007.0
20260507012017 13 0 0.0 14.5 0.00 0.18 0.18 90 1007.0
20260507011532 13 0 0.0 14.5 0.00 0.18 0.18 90 1007.0
20260507011013 13 151 1.6 12.9 0.00 0.18 0.18 90 1006.9
20260507010513 13 252 0.0 12.9 0.00 0.18 0.18 90 1007.1
20260507010034 13 139 3.2 12.9 0.00 0.18 0.18 90 1007.1
20260507005513 13 194 1.6 8.0 0.00 0.18 0.18 90 1007.2
20260507005015 13 205 1.6 12.9 0.00 0.18 0.18 90 1007.0
20260507004530 13 0 3.2 12.9 0.00 0.18 0.18 90 1007.0
20260507004018 13 79 3.2 12.9 0.00 0.18 0.18 90 1007.0
20260507003512 13 71 1.6 12.9 0.03 0.18 0.18 90 1007.1
20260507003030 13 182 1.6 14.5 0.03 0.18 0.18 90 1006.9
20260507002514 13 164 4.8 14.5 0.03 0.18 0.18 90 1006.8
20260507002014 13 206 3.2 11.3 0.03 0.18 0.18 90 1006.9
20260507001532 13 117 3.2 11.3 0.03 0.18 0.18 90 1006.9
20260507001017 13 154 1.6 16.1 0.03 0.18 0.18 90 1006.9
20260507000514 12 178 0.0 16.1 0.03 0.18 0.18 90 1006.9
20260507000037 12 169 3.2 14.5 0.03 0.18 0.18 90 1007.0
20260506235514 12 202 1.6 14.5 0.03 0.18 0.18 90 1006.9
20260506235015 12 134 1.6 12.9 0.03 0.18 0.18 90 1006.9
20260506234530 12 151 3.2 12.9 0.03 0.18 0.18 89 1006.7
20260506234012 12 162 1.6 16.1 0.03 0.18 0.18 89 1006.9
20260506233515 12 105 3.2 16.1 0.00 0.15 0.15 89 1006.7
20260506233034 12 246 0.0 14.5 0.00 0.15 0.15 89 1007.0
20260506232514 12 0 3.2 14.5 0.00 0.15 0.15 89 1006.9
20260506232014 12 147 3.2 14.5 0.00 0.15 0.15 89 1006.8
20260506231531 12 159 1.6 14.5 0.00 0.15 0.15 89 1007.0
20260506231018 12 115 4.8 14.5 0.03 0.15 0.15 89 1007.0
20260506230515 12 146 3.2 17.7 0.03 0.15 0.15 89 1007.0
20260506230032 12 196 4.8 17.7 0.05 0.15 0.15 89 1007.0
20260506225517 13 190 4.8 17.7 0.05 0.15 0.15 89 1006.9
20260506225013 13 210 1.6 14.5 0.05 0.15 0.15 89 1006.9
20260506224531 13 186 6.4 20.9 0.08 0.15 0.15 89 1006.8
20260506224016 13 143 3.2 20.9 0.08 0.15 0.15 89 1006.8
20260506223515 13 139 4.8 12.9 0.08 0.15 0.15 89 1006.7
20260506223032 13 147 3.2 14.5 0.10 0.15 0.15 88 1007.0
20260506222516 13 161 3.2 16.1 0.10 0.15 0.15 88 1006.8
20260506222018 13 142 3.2 16.1 0.10 0.15 0.15 88 1006.8
20260506221534 13 184 4.8 12.9 0.08 0.13 0.13 88 1007.1
20260506221017 13 17 0.0 16.1 0.08 0.13 0.13 88 1007.4
20260506220514 13 126 1.6 16.1 0.08 0.13 0.13 88 1007.5
20260506220030 13 171 6.4 19.3 0.05 0.10 0.10 88 1007.4
20260506215520 13 150 6.4 19.3 0.05 0.10 0.10 87 1007.5
20260506215018 13 179 4.8 19.3 0.05 0.10 0.10 87 1007.5
20260506214531 13 186 1.6 16.1 0.03 0.08 0.08 87 1007.5
20260506214014 13 170 4.8 16.1 0.03 0.08 0.08 86 1007.5
20260506213515 13 200 3.2 14.5 0.03 0.08 0.08 86 1007.6
20260506213031 13 196 3.2 14.5 0.00 0.05 0.05 86 1007.6
20260506212514 13 95 3.2 14.5 0.00 0.05 0.05 86 1007.5
20260506212014 14 172 3.2 14.5 0.00 0.05 0.05 86 1007.5
20260506211534 14 240 3.2 17.7 0.00 0.05 0.05 86 1007.7
20260506211015 14 194 4.8 17.7 0.00 0.05 0.05 86 1007.7
20260506210517 14 169 4.8 17.7 0.00 0.05 0.05 86 1007.7
20260506210032 14 214 3.2 16.1 0.00 0.05 0.05 86 1007.7
20260506205515 14 121 3.2 14.5 0.00 0.05 0.05 86 1007.8
20260506205014 14 155 4.8 17.7 0.00 0.05 0.05 86 1007.9
20260506204532 14 205 4.8 17.7 0.03 0.05 0.05 86 1007.9
20260506204014 14 183 4.8 24.1 0.03 0.05 0.05 86 1007.9
20260506203518 14 158 6.4 24.1 0.03 0.05 0.05 86 1008.1
20260506203032 14 153 3.2 16.1 0.05 0.05 0.05 86 1008.0
20260506202514 14 165 4.8 14.5 0.05 0.05 0.05 86 1008.0
20260506202012 15 71 3.2 16.1 0.05 0.05 0.05 86 1008.0
20260506201531 15 163 4.8 16.1 0.05 0.05 0.05 86 1008.0
20260506201013 15 202 4.8 14.5 0.05 0.05 0.05 86 1008.3
20260506200519 15 92 4.8 14.5 0.05 0.05 0.05 86 1008.1
20260506200029 15 117 1.6 16.1 0.05 0.05 0.05 86 1008.2
20260506195513 15 167 6.4 22.5 0.05 0.05 0.05 85 1008.1
20260506195011 15 161 8.0 22.5 0.05 0.05 0.05 85 1008.1
20260506194530 15 207 4.8 16.1 0.03 0.03 0.03 84 1008.3
20260506194014 16 321 3.2 16.1 0.03 0.03 0.03 83 1008.2
20260506193511 16 183 4.8 11.3 0.03 0.03 0.03 82 1008.5
20260506193033 16 155 1.6 14.5 0.00 0.00 0.00 81 1008.3
20260506192516 16 0 1.6 16.1 0.00 0.00 0.00 80 1008.4
20260506192013 17 174 3.2 33.8 0.00 0.00 0.00 79 1008.5
20260506191532 17 84 3.2 33.8 0.00 0.00 0.00 78 1008.3
20260506191014 17 128 4.8 20.9 0.00 0.00 0.00 76 1008.4
20260506190511 17 229 8.0 20.9 0.00 0.00 0.00 76 1008.3
20260506190030 17 137 3.2 20.9 0.00 0.00 0.00 75 1008.5
20260506185513 17 184 4.8 20.9 0.00 0.00 0.00 75 1008.4
20260506185012 17 155 4.8 14.5 0.00 0.00 0.00 75 1008.6
20260506184531 17 170 4.8 16.1 0.00 0.00 0.00 75 1008.3
20260506184010 17 248 6.4 16.1 0.00 0.00 0.00 74 1008.3
20260506183513 17 151 3.2 16.1 0.00 0.00 0.00 74 1008.3
20260506183032 18 132 3.2 16.1 0.00 0.00 0.00 74 1008.6
20260506182512 18 134 8.0 17.7 0.00 0.00 0.00 73 1008.6
20260506182014 18 176 6.4 17.7 0.00 0.00 0.00 73 1008.8
20260506181532 18 156 6.4 17.7 0.00 0.00 0.00 72 1008.6
20260506181015 18 190 4.8 16.1 0.00 0.00 0.00 72 1008.6
20260506180515 18 208 4.8 25.7 0.00 0.00 0.00 72 1008.7
20260506180036 19 168 4.8 25.7 0.00 0.00 0.00 71 1008.9
20260506175510 19 145 6.4 25.7 0.00 0.00 0.00 71 1009.1
20260506175011 19 67 8.0 25.7 0.00 0.00 0.00 71 1008.7
20260506174529 19 175 6.4 27.4 0.00 0.00 0.00 71 1009.1
20260506174013 19 150 9.7 27.4 0.00 0.00 0.00 70 1009.1
20260506173512 20 149 4.8 25.7 0.00 0.00 0.00 70 1009.4
20260506173029 20 147 6.4 24.1 0.00 0.00 0.00 70 1009.3
20260506172511 20 165 8.0 29.0 0.00 0.00 0.00 71 1009.4
20260506172013 19 134 9.7 29.0 0.00 0.00 0.00 71 1009.2
20260506171533 19 140 3.2 29.0 0.00 0.00 0.00 71 1009.2
20260506171010 19 189 9.7 29.0 0.00 0.00 0.00 70 1009.4
20260506170510 20 213 6.4 22.5 0.00 0.00 0.00 69 1009.4
20260506170031 20 0 8.0 27.4 0.00 0.00 0.00 68 1009.2
20260506165515 20 189 9.7 27.4 0.00 0.00 0.00 69 1009.4
20260506165010 20 177 8.0 24.1 0.00 0.00 0.00 69 1009.5
20260506164530 20 173 6.4 24.1 0.00 0.00 0.00 70 1009.6
20260506164011 19 44 6.4 22.5 0.00 0.00 0.00 71 1009.8
20260506163513 19 153 4.8 29.0 0.00 0.00 0.00 72 1009.9
20260506163052 19 191 6.4 30.6 0.00 0.00 0.00 71 1009.7
20260506162519 19 206 9.7 30.6 0.00 0.00 0.00 71 1009.8
20260506162013 19 184 6.4 24.1 0.00 0.00 0.00 71 1009.9
20260506161533 19 172 8.0 20.9 0.00 0.00 0.00 71 1010.1
20260506161010 18 178 6.4 25.7 0.00 0.00 0.00 72 1010.0
20260506160511 18 150 8.0 27.4 0.00 0.00 0.00 72 1010.1
20260506160032 19 134 6.4 29.0 0.00 0.00 0.00 71 1010.0
20260506155511 19 132 11.3 29.0 0.00 0.00 0.00 71 1010.3
20260506155010 19 123 3.2 20.9 0.00 0.00 0.00 72 1010.2
20260506154541 18 0 6.4 22.5 0.00 0.00 0.00 72 1010.3
20260506154014 19 175 6.4 32.2 0.00 0.00 0.00 71 1010.3
20260506153512 19 161 9.7 32.2 0.00 0.00 0.00 70 1010.5
20260506153036 19 149 8.0 24.1 0.00 0.00 0.00 71 1010.5
20260506152510 19 221 4.8 24.1 0.00 0.00 0.00 71 1010.7
20260506152014 19 195 9.7 24.1 0.00 0.00 0.00 72 1010.7
20260506151532 19 319 9.7 22.5 0.00 0.00 0.00 71 1010.4
20260506151013 18 174 3.2 22.5 0.00 0.00 0.00 73 1010.6
20260506150513 18 165 4.8 22.5 0.00 0.00 0.00 74 1010.8
20260506150030 18 193 8.0 24.1 0.00 0.00 0.00 73 1010.8
20260506145517 18 181 8.0 24.1 0.00 0.00 0.00 73 1010.7
20260506145011 18 178 8.0 22.5 0.00 0.00 0.00 73 1010.8
20260506144531 18 292 4.8 19.3 0.00 0.00 0.00 73 1010.6
20260506144010 18 230 8.0 27.4 0.00 0.00 0.00 72 1010.6
20260506143510 18 0 6.4 27.4 0.00 0.00 0.00 72 1010.6
20260506143038 18 136 4.8 17.7 0.00 0.00 0.00 73 1010.5
20260506142513 18 192 6.4 24.1 0.00 0.00 0.00 73 1010.6
20260506142010 18 241 4.8 29.0 0.00 0.00 0.00 73 1010.7
20260506141534 18 211 4.8 29.0 0.00 0.00 0.00 74 1010.7
20260506141011 18 169 4.8 17.7 0.00 0.00 0.00 73 1010.7
20260506140511 18 188 4.8 24.1 0.00 0.00 0.00 73 1010.6
20260506140030 18 234 6.4 27.4 0.00 0.00 0.00 73 1010.4
20260506135511 18 193 11.3 27.4 0.00 0.00 0.00 73 1010.4
20260506135014 18 165 8.0 24.1 0.00 0.00 0.00 73 1010.6
20260506134530 18 148 4.8 20.9 0.00 0.00 0.00 74 1010.6
20260506134020 18 189 4.8 20.9 0.00 0.00 0.00 75 1010.8
20260506133516 18 186 8.0 20.9 0.00 0.00 0.00 74 1011.0
20260506133032 17 190 4.8 19.3 0.00 0.00 0.00 75 1011.1
20260506132514 17 193 6.4 19.3 0.00 0.00 0.00 76 1011.2
20260506132014 17 180 6.4 19.3 0.00 0.00 0.00 77 1011.1
20260506131529 17 156 6.4 17.7 0.00 0.00 0.00 77 1011.2
20260506131014 17 161 4.8 16.1 0.00 0.00 0.00 78 1011.1
20260506130518 16 124 4.8 16.1 0.00 0.00 0.00 78 1011.1
20260506130030 16 155 3.2 27.4 0.00 0.00 0.00 79 1011.1
20260506125515 16 163 6.4 27.4 0.00 0.00 0.00 79 1011.1
20260506125015 16 164 4.8 20.9 0.00 0.00 0.00 79 1011.2
20260506124530 16 132 6.4 20.9 0.00 0.00 0.00 79 1011.1
20260506124015 16 0 4.8 17.7 0.00 0.00 0.00 79 1011.2
20260506123515 16 124 3.2 17.7 0.00 0.00 0.00 80 1011.1
20260506123035 16 127 4.8 17.7 0.00 0.00 0.00 80 1011.0
20260506122515 16 97 6.4 17.7 0.00 0.00 0.00 80 1011.0
20260506122015 15 193 3.2 16.1 0.00 0.00 0.00 81 1011.0
20260506121539 15 146 4.8 19.3 0.00 0.00 0.00 81 1011.0
20260506121014 15 133 4.8 19.3 0.00 0.00 0.00 82 1011.2
20260506120514 15 146 3.2 17.7 0.00 0.00 0.00 83 1011.3
20260506120030 14 186 6.4 17.7 0.00 0.00 0.00 82 1011.4
20260506115514 14 148 1.6 16.1 0.00 0.00 0.00 82 1011.6
20260506115014 15 126 3.2 16.1 0.00 0.00 0.00 82 1011.6
20260506114541 15 169 4.8 17.7 0.00 0.00 0.00 82 1011.4
20260506114014 15 157 6.4 17.7 0.00 0.00 0.00 82 1011.5
20260506113515 15 0 1.6 16.1 0.00 0.00 0.00 83 1011.6
20260506113030 15 128 3.2 24.1 0.00 0.00 0.00 83 1011.5
20260506112516 14 0 3.2 24.1 0.00 0.00 0.00 83 1011.5
20260506112018 14 136 4.8 16.1 0.00 0.00 0.00 84 1011.5
20260506111537 14 30 1.6 12.9 0.00 0.00 0.00 84 1011.4
20260506111014 13 158 3.2 16.1 0.00 0.00 0.00 84 1011.7
20260506110515 13 168 3.2 16.1 0.00 0.00 0.00 84 1011.6
20260506110033 13 202 4.8 14.5 0.00 0.00 0.00 84 1011.4
20260506105513 13 175 1.6 12.9 0.00 0.00 0.00 84 1011.4
20260506105014 13 141 3.2 16.1 0.00 0.00 0.00 84 1011.4
20260506104533 13 91 6.4 16.1 0.00 0.00 0.00 84 1011.4
20260506104012 13 0 3.2 12.9 0.00 0.00 0.00 85 1011.5
20260506103514 13 129 4.8 19.3 0.00 0.00 0.00 85 1011.5
20260506103031 13 142 3.2 19.3 0.00 0.00 0.00 85 1011.3
20260506102514 13 146 4.8 19.3 0.00 0.00 0.00 85 1011.5
20260506102015 13 169 3.2 14.5 0.00 0.00 0.00 85 1011.4
20260506101534 13 123 1.6 14.5 0.00 0.00 0.00 85 1011.4
20260506101013 13 159 1.6 17.7 0.00 0.00 0.00 84 1011.4
20260506100513 13 123 1.6 17.7 0.00 0.00 0.00 84 1011.3
20260506100030 13 167 3.2 16.1 0.00 0.00 0.00 84 1011.3
20260506095515 13 153 1.6 14.5 0.00 0.00 0.00 84 1011.3
20260506095022 13 119 3.2 14.5 0.00 0.00 0.00 84 1011.2
20260506094530 13 127 1.6 12.9 0.00 0.00 0.00 84 1011.1
20260506094014 13 90 3.2 12.9 0.00 0.00 0.00 84 1011.2
20260506093514 13 145 1.6 16.1 0.00 0.00 0.00 84 1011.2
20260506093032 13 196 4.8 16.1 0.00 0.00 0.00 84 1011.2
20260506092513 13 60 1.6 17.7 0.00 0.00 0.00 84 1011.2
20260506092014 13 181 3.2 17.7 0.00 0.00 0.00 84 1011.2
20260506091532 13 188 4.8 17.7 0.00 0.00 0.00 84 1011.2
20260506091014 13 148 1.6 16.1 0.00 0.00 0.00 83 1011.2
20260506090514 14 171 3.2 16.1 0.00 0.00 0.00 83 1011.3
20260506090029 14 138 3.2 14.5 0.00 0.00 0.00 83 1011.3
20260506085514 14 149 3.2 19.3 0.00 0.00 0.00 83 1011.3
20260506085013 14 197 3.2 19.3 0.00 0.00 0.00 83 1011.3
20260506084532 14 156 1.6 17.7 0.00 0.00 0.00 83 1011.4
20260506084012 14 134 1.6 17.7 0.00 0.00 0.00 83 1011.5
20260506083513 14 194 4.8 17.7 0.00 0.00 0.00 83 1011.5
20260506083032 14 188 4.8 14.5 0.00 0.00 0.00 83 1011.5
20260506082514 14 91 1.6 14.5 0.00 0.00 0.00 83 1011.4
20260506082014 14 139 3.2 12.9 0.00 0.00 0.00 83 1011.5
20260506081532 14 196 3.2 12.9 0.00 0.00 0.00 83 1011.5
20260506081015 14 95 4.8 12.9 0.00 0.00 0.00 83 1011.5
20260506080517 14 135 3.2 16.1 0.00 0.00 0.00 82 1011.4
20260506073514 15 171 6.4 14.5 0.00 0.00 0.00 81 1011.3
20260506073041 15 146 3.2 16.1 0.00 0.00 0.00 81 1011.4
20260506072515 15 183 3.2 19.3 0.00 0.00 0.00 81 1011.4
20260506072014 15 194 3.2 19.3 0.00 0.00 0.00 81 1011.2
20260506071534 15 157 3.2 14.5 0.00 0.00 0.00 81 1011.4
20260506071017 15 169 3.2 12.9 0.00 0.00 0.00 81 1011.2
20260506070514 15 155 3.2 20.9 0.00 0.00 0.00 81 1011.4
20260506062014 15 130 4.8 22.5 0.00 0.00 0.00 80 1011.3
20260506061535 15 160 6.4 22.5 0.00 0.00 0.00 80 1011.1
20260506061014 15 195 1.6 11.3 0.00 0.00 0.00 80 1011.2
20260506060513 15 187 1.6 24.1 0.00 0.00 0.00 80 1011.2
20260506051014 13 119 4.8 17.7 0.00 0.00 0.00 80 1011.6
20260506050518 13 170 1.6 17.7 0.00 0.00 0.00 80 1011.7
20260506045015 13 173 1.6 9.7 0.00 0.00 0.00 80 1012.0
20260506044539 13 128 3.2 9.7 0.00 0.00 0.00 79 1011.9
20260506044018 13 155 3.2 9.7 0.00 0.00 0.00 79 1011.9
20260506043514 14 130 3.2 9.7 0.00 0.00 0.00 79 1011.9
20260506043029 14 355 1.6 12.9 0.00 0.00 0.00 79 1012.0
20260506042512 14 135 3.2 14.5 0.00 0.00 0.00 78 1011.9
20260506042018 14 164 3.2 14.5 0.00 0.00 0.00 78 1011.9
20260506041532 14 202 4.8 12.9 0.00 0.00 0.00 77 1011.8
20260506041014 14 128 3.2 22.5 0.00 0.00 0.00 77 1011.9
20260506040514 14 156 6.4 22.5 0.00 0.00 0.00 77 1011.8
20260506040051 14 119 3.2 17.7 0.00 0.00 0.00 76 1011.8
20260506035515 14 188 4.8 17.7 0.00 0.00 0.00 77 1011.8
20260506035013 14 181 3.2 16.1 0.00 0.00 0.00 76 1011.8
20260506034529 14 163 3.2 16.1 0.00 0.00 0.00 76 1011.7
20260506034013 14 184 3.2 16.1 0.00 0.00 0.00 76 1011.6
20260506033514 14 115 1.6 17.7 0.00 0.00 0.00 76 1011.6
20260506033032 14 239 1.6 17.7 0.00 0.00 0.00 76 1011.7
20260506032514 14 262 1.6 14.5 0.00 0.00 0.00 76 1011.7
20260506032014 14 163 1.6 17.7 0.00 0.00 0.00 75 1011.5
20260506031544 14 155 4.8 17.7 0.00 0.00 0.00 75 1011.5
20260506031018 14 116 3.2 17.7 0.00 0.00 0.00 75 1011.5
20260506030511 14 168 1.6 17.7 0.00 0.00 0.00 75 1011.6
20260506030033 14 185 4.8 17.7 0.00 0.00 0.00 75 1011.7
20260506025516 15 150 3.2 14.5 0.00 0.00 0.00 74 1011.6
20260506025014 15 178 3.2 16.1 0.00 0.00 0.00 74 1011.7
20260506024530 15 208 4.8 16.1 0.00 0.00 0.00 74 1011.6
20260506024015 15 161 3.2 12.9 0.00 0.00 0.00 74 1011.7
20260506023514 15 196 3.2 14.5 0.00 0.00 0.00 74 1011.7
20260506023032 14 130 3.2 16.1 0.00 0.00 0.00 74 1011.5
20260506022514 15 184 3.2 16.1 0.00 0.00 0.00 74 1011.6
20260506022014 15 189 1.6 14.5 0.00 0.00 0.00 74 1011.5
20260506021530 15 124 3.2 12.9 0.00 0.00 0.00 74 1011.5